This is the latest recevied weather packets stored in our database for station/object NT9G. If no packets are shown the sender has not sent any weather packets the latest 10 day(s).
| Time | Temp. | Humidity | Pressure | Rain* | Wind** | Luminosity | Snow |
|---|---|---|---|---|---|---|---|
| 1777559310 | 13.33° C | 42% | 1018.4 hPa | 0 mm | - | - | - |
| 1777559010 | 13.33° C | 42% | 1018.4 hPa | 0 mm | - | - | - |
| 1777558709 | 13.33° C | 42% | 1018.5 hPa | 0 mm | - | - | - |
| 1777558409 | 13.33° C | 48% | 1018.6 hPa | 0 mm | - | - | - |
| 1777558109 | 12.78° C | 50% | 1018.6 hPa | 0 mm | - | - | - |
| 1777557809 | 12.78° C | 49% | 1018.7 hPa | 0 mm | - | - | - |
| 1777557508 | 12.22° C | 52% | 1018.8 hPa | 0 mm | - | - | - |
| 1777557208 | 12.22° C | 53% | 1018.8 hPa | 0 mm | - | - | - |
| 1777556907 | 11.67° C | 58% | 1018.8 hPa | 0 mm | - | - | - |
| 1777556606 | 11.67° C | 58% | 1018.8 hPa | 0 mm | - | - | - |
| 1777556306 | 11.11° C | 60% | 1018.8 hPa | 0 mm | - | - | - |
| 1777556006 | 10.56° C | 59% | 1018.8 hPa | 0 mm | - | - | - |
| 1777555405 | 10° C | 66% | 1018.7 hPa | 0 mm | - | - | - |
| 1777555105 | 10° C | 68% | 1018.8 hPa | 0 mm | - | - | - |
| 1777554504 | 9.44° C | 74% | 1018.8 hPa | 0 mm | - | - | - |
| 1777554203 | 8.89° C | 75% | 1018.8 hPa | 0 mm | - | - | - |
| 1777553990 | 8.89° C | 76% | 1018.8 hPa | 0 mm | - | - | - |
| 1777553903 | 8.89° C | 75% | 1018.8 hPa | 0 mm | - | - | - |
| 1777553603 | 8.89° C | 76% | 1018.8 hPa | 0 mm | - | - | - |
| 1777553304 | 8.33° C | 79% | 1018.8 hPa | 0 mm | - | - | - |
| 1777553001 | 8.33° C | 81% | 1018.8 hPa | 0 mm | - | - | - |
| 1777552700 | 7.78° C | 83% | 1018.7 hPa | 0 mm | - | - | - |
| 1777552399 | 7.78° C | 84% | 1018.7 hPa | 0 mm | - | - | - |
| 1777552099 | 7.22° C | 85% | 1018.6 hPa | 0 mm | - | - | - |
| 1777551799 | 7.22° C | 85% | 1018.5 hPa | 0 mm | - | - | - |
* Rain since midnight (hover to see other rain measurements)
** Current wind speed in m/s (hover to see current wind gust speed)